CW5346 Weather Reports


time (UTC)temp
C
wind
direction
speed
KPH
gust
KPH
rain 1hr
cm
rain 24hr
cm
rain mn
cm
humidity
%
barometer
mb
20260506122602 18 212 4.8 14.5 0.00 0.00 0.00 78 1008.7
20260506121603 18 229 6.4 22.5 0.00 0.00 0.00 78 1008.8
20260506120602 18 211 9.7 22.5 0.00 0.00 0.00 79 1008.9
20260506115603 18 231 9.7 20.9 0.00 0.00 0.00 78 1008.9
20260506114602 18 259 6.4 20.9 0.00 0.00 0.00 79 1009.2
20260506113624 18 237 4.8 16.1 0.00 0.00 0.00 79 1009.1
20260506112603 18 222 6.4 25.7 0.00 0.00 0.00 79 1008.9
20260506111603 18 230 0.0 14.5 0.00 0.00 0.00 80 1009.0
20260506110603 18 185 4.8 22.5 0.00 0.00 0.00 80 1009.0
20260506105603 18 246 8.0 14.5 0.00 0.00 0.00 80 1008.8
20260506104603 17 214 9.7 22.5 0.00 0.00 0.00 81 1008.9
20260506103602 17 232 6.4 24.1 0.00 0.00 0.00 81 1009.0
20260506102603 17 227 6.4 12.9 0.00 0.00 0.00 82 1008.9
20260506101602 17 255 1.6 12.9 0.00 0.00 0.00 82 1008.8
20260506100603 17 261 4.8 16.1 0.00 0.00 0.00 83 1008.8
20260506095602 17 220 4.8 12.9 0.00 0.00 0.00 84 1008.5
20260506094603 17 211 1.6 12.9 0.00 0.00 0.00 84 1008.7
20260506093603 16 232 0.0 20.9 0.00 0.00 0.00 84 1008.7
20260506092603 16 213 0.0 6.4 0.00 0.00 0.00 84 1008.7
20260506091602 16 213 0.0 9.7 0.00 0.00 0.00 84 1008.7
20260506090603 16 211 0.0 9.7 0.00 0.00 0.00 83 1008.7
20260506085603 16 213 3.2 11.3 0.00 0.00 0.00 83 1008.8
20260506084623 16 213 0.0 8.0 0.00 0.00 0.00 83 1008.9
20260506083603 16 214 3.2 9.7 0.00 0.00 0.00 82 1009.0
20260506082605 16 215 0.0 1.6 0.00 0.00 0.00 82 1008.9
20260506081605 16 214 1.6 8.0 0.00 0.00 0.00 82 1009.0
20260506080605 17 213 0.0 4.8 0.00 0.00 0.00 80 1009.0
20260506072604 18 217 4.8 11.3 0.00 0.00 0.00 76 1009.1
20260506071604 18 227 0.0 11.3 0.00 0.00 0.00 75 1009.0
20260506070604 18 208 0.0 9.7 0.00 0.00 0.00 74 1009.1
20260506061604 19 203 0.0 9.7 0.00 0.00 0.00 71 1009.2
20260506060604 19 199 1.6 11.3 0.00 0.00 0.00 70 1009.1
20260506050604 20 198 1.6 12.9 0.00 0.00 0.00 67 1009.8
20260506044604 20 228 0.0 17.7 0.00 0.00 0.00 66 1009.8
20260506043604 20 198 6.4 20.9 0.00 0.00 0.00 65 1009.7
20260506042604 20 237 6.4 24.1 0.00 0.00 0.00 65 1009.8
20260506041603 20 224 4.8 22.5 0.00 0.00 0.00 65 1009.7
20260506040646 20 225 3.2 16.1 0.00 0.00 0.00 64 1009.7
20260506035604 21 238 3.2 16.1 0.00 0.00 0.00 63 1009.6
20260506034605 21 235 3.2 17.7 0.00 0.00 0.00 62 1009.7
20260506033605 21 210 3.2 22.5 0.00 0.00 0.00 61 1009.7
20260506032604 21 224 1.6 12.9 0.00 0.00 0.00 60 1009.6
20260506030604 22 178 1.6 16.1 0.00 0.00 0.00 58 1009.5
20260506025604 22 214 6.4 25.7 0.00 0.00 0.00 57 1009.5
20260506024604 22 227 9.7 24.1 0.00 0.00 0.00 56 1009.4
20260506023604 22 220 8.0 30.6 0.00 0.00 0.00 54 1009.4
20260506022604 22 207 11.3 27.4 0.00 0.00 0.00 53 1009.4
20260506021603 23 233 8.0 25.7 0.00 0.00 0.00 51 1009.3
20260506020625 23 225 8.0 29.0 0.00 0.00 0.00 49 1009.3
20260506015625 23 225 6.4 22.5 0.00 0.00 0.00 49 1009.1
20260506014604 23 202 6.4 19.3 0.00 0.00 0.00 48 1009.1
20260506013604 23 194 3.2 24.1 0.00 0.00 0.00 48 1008.8
20260506012604 23 228 3.2 22.5 0.00 0.00 0.00 47 1008.8
20260506011604 23 208 8.0 17.7 0.00 0.00 0.00 47 1008.8
20260506010604 24 208 12.9 24.1 0.00 0.00 0.00 46 1008.7
20260506005604 24 219 1.6 24.1 0.00 0.00 0.00 45 1008.5
20260506004604 24 199 1.6 17.7 0.00 0.00 0.00 44 1008.5
20260506002604 25 218 6.4 19.3 0.00 0.00 0.00 41 1008.2
20260506001604 25 216 3.2 14.5 0.00 0.00 0.00 40 1008.0
20260506000625 25 240 1.6 24.1 0.00 0.00 0.00 40 1008.0
20260505235626 25 220 11.3 22.5 0.00 0.00 0.00 39 1007.8
20260505233604 25 199 1.6 12.9 0.00 0.00 0.00 38 1007.8
20260505232604 25 225 1.6 24.1 0.00 0.00 0.00 38 1007.8
20260505231604 26 206 1.6 22.5 0.00 0.00 0.00 37 1007.6
20260505230604 26 230 6.4 24.1 0.00 0.00 0.00 36 1007.3
20260505225604 26 217 8.0 22.5 0.00 0.00 0.00 36 1007.2
20260505224604 26 216 8.0 27.4 0.00 0.00 0.00 35 1007.3
20260505223626 26 219 11.3 27.4 0.00 0.00 0.00 34 1007.1
20260505222603 27 238 6.4 32.2 0.00 0.00 0.00 34 1007.1
20260505221604 27 256 9.7 29.0 0.00 0.00 0.00 33 1007.0
20260505220604 27 216 6.4 35.4 0.00 0.00 0.00 33 1007.0
20260505215604 27 228 12.9 32.2 0.00 0.00 0.00 34 1006.9
20260505214604 27 255 4.8 37.0 0.00 0.00 0.00 34 1006.9
20260505213604 27 202 12.9 46.7 0.00 0.00 0.00 34 1006.8
20260505212605 27 222 17.7 51.5 0.00 0.00 0.00 34 1006.5
20260505211603 27 216 20.9 37.0 0.00 0.00 0.00 35 1006.4
20260505210625 27 195 14.5 37.0 0.00 0.00 0.00 36 1006.5
20260505205604 27 240 6.4 25.7 0.00 0.00 0.00 35 1006.4
20260505204604 27 204 11.3 41.8 0.00 0.00 0.00 36 1006.5
20260505203604 27 222 11.3 35.4 0.00 0.00 0.00 35 1006.8
20260505202604 28 186 9.7 33.8 0.00 0.00 0.00 34 1006.8
20260505200604 28 207 8.0 41.8 0.00 0.00 0.00 35 1006.8
20260505195603 28 220 12.9 33.8 0.00 0.00 0.00 35 1006.7
20260505194604 27 205 14.5 38.6 0.00 0.00 0.00 35 1006.8
20260505193603 27 213 11.3 43.5 0.00 0.00 0.00 37 1006.8
20260505192604 28 221 16.1 40.2 0.00 0.00 0.00 36 1007.0
20260505191604 28 202 11.3 33.8 0.00 0.00 0.00 36 1007.0
20260505190604 28 206 12.9 29.0 0.00 0.00 0.00 36 1007.2
20260505185625 28 203 9.7 32.2 0.00 0.00 0.00 38 1007.4
20260505184603 28 262 8.0 32.2 0.00 0.00 0.00 38 1007.5
20260505183625 28 249 16.1 33.8 0.00 0.00 0.00 37 1008.0
20260505182604 28 228 12.9 25.7 0.00 0.00 0.00 40 1008.0
20260505181603 28 182 12.9 30.6 0.00 0.00 0.00 42 1007.9
20260505180604 27 242 17.7 33.8 0.00 0.00 0.00 41 1008.0
20260505175604 27 203 19.3 35.4 0.00 0.00 0.00 42 1008.1
20260505174604 27 213 8.0 32.2 0.00 0.00 0.00 44 1008.1
20260505173603 27 212 4.8 20.9 0.00 0.00 0.00 45 1008.1
20260505172604 27 212 12.9 25.7 0.00 0.00 0.00 44 1008.2
20260505171646 27 254 9.7 22.5 0.00 0.00 0.00 44 1008.4
20260505170625 26 212 11.3 29.0 0.00 0.00 0.00 47 1008.4
20260505165604 26 210 8.0 24.1 0.00 0.00 0.00 46 1008.6
20260505163604 26 179 4.8 27.4 0.00 0.00 0.00 49 1008.9
20260505162604 26 209 16.1 25.7 0.00 0.00 0.00 48 1009.0
20260505161605 25 255 9.7 24.1 0.00 0.00 0.00 52 1009.2
20260505160603 25 176 3.2 22.5 0.00 0.00 0.00 51 1009.3
20260505152604 24 168 9.7 19.3 0.00 0.00 0.00 54 1009.8
20260505151603 24 178 8.0 19.3 0.00 0.00 0.00 54 1009.9
20260505150604 24 191 1.6 16.1 0.00 0.00 0.00 54 1009.9
20260505140604 21 242 6.4 16.1 0.00 0.00 0.00 61 1010.3
20260505124603 16 225 3.2 11.3 0.00 0.00 0.00 80 1010.1
20260505123604 15 236 0.0 0.0 0.00 0.00 0.00 87 1010.2